Home   Weather   Bünde   Past weeks

Flag for Germany Past Weather in Bünde, North Rhine-Westphalia, Germany — Yesterday and Last 2 Weeks

Now
66 °F

Mild.


Feels Like: 66 °F
Forecast: 57 / 73 °F
Wind: 13 mph from West

Location: Bueckeburg

Current Time: Jul 21, 2017 at 12:57:59 am

Latest Report: Jul 21, 2017 at 12:20 am


Visibility: 3 mi

Pressure: 29.89 "Hg

Humidity: 78%

Dew Point: 59 °F

Location of BündeLocation

Past Weather in Bünde — Graph

°F

Bünde Temperature Yesterday

Maximum temperature yesterday: 79 °F (at 4:20 pm)
Minimum temperature yesterday: 63 °F (at 2:20 am)
Average temperature yesterday: 69 °F

High & Low Weather Summary for the Past Weeks

 TemperatureHumidityPressure
High90 °F (Jul 19, 5:20 pm)100% (Jul 8, 12:20 am)30.21 "Hg (Jul 8, 12:20 am)
Low52 °F (Jul 13, 4:20 am)38% (Jul 14, 2:20 pm)29.68 "Hg (Jul 12, 12:20 pm)
Average66 °F79%29.96 "Hg
* Reported Jul 5 11:20 pm — Jul 20 11:20 pm, Bünde. Weather by CustomWeather, © 2017

Note: Actual official high and low records may vary slightly from our data, if they occured in-between our weather recording intervals... More about our weather records

Advertising

Bünde Weather History for the Previous 24 Hours

Scroll right to see more
 ConditionsComfort  
Time TempWeatherWind HumidityBarometerVisibility
11:20 pm
Thu, Jul 20
68 °FMild.6 mph83%29.86 "Hg2 mi
10:20 pm66 °FMild.6 mph94%29.83 "Hg2 mi
9:20 pm68 °FMild.6 mph88%29.80 "Hg2 mi
8:20 pm70 °FMild.7 mph83%29.80 "Hg2 mi
7:20 pm70 °FScattered clouds.5 mph73%29.80 "HgN/A
6:20 pm66 °FThunderstorms. Broken clouds.14 mph88%29.80 "Hg5 mi
6:02 pm75 °FThunderstorms. Partly sunny.12 mph65%29.77 "Hg4 mi
5:33 pm79 °FThundershowers. Scattered clouds.9 mph54%29.77 "HgN/A
5:20 pm77 °FScattered clouds.10 mph61%29.77 "HgN/A
4:20 pm79 °FPassing clouds.13 mph58%29.77 "HgN/A
3:20 pm75 °FBroken clouds.10 mph69%29.77 "HgN/A
2:20 pm73 °FBroken clouds.12 mph74%29.77 "HgN/A
1:20 pm72 °FBroken clouds.10 mph78%29.80 "HgN/A
12:20 pm70 °FPartly sunny.9 mph83%29.80 "HgN/A
11:20 am68 °FLight rain. Broken clouds.8 mph88%29.80 "HgN/A
10:20 am68 °FPartly sunny.3 mph88%29.80 "HgN/A
9:20 am68 °FSprinkles. Partly sunny.10 mph88%29.80 "Hg5 mi
8:20 am66 °FPartly sunny.5 mph88%29.77 "Hg5 mi
7:20 am66 °FBroken clouds.5 mph88%29.77 "HgN/A
6:20 am64 °FBroken clouds.3 mph94%29.77 "HgN/A
5:20 am64 °FPassing clouds.5 mph94%29.77 "HgN/A
4:20 am64 °FMild.3 mph100%29.77 "Hg2 mi
3:20 am63 °FMild.3 mph100%29.77 "Hg2 mi
2:20 am63 °FMild.2 mph94%29.80 "Hg1 mi
1:20 am64 °FMild.2 mph94%29.83 "Hg2 mi
12:20 am64 °FMild.2 mph100%29.83 "Hg2 mi
Weather by CustomWeather, © 2017

See weather overviewHow to use our weather pages